[[{"header":{"parameterUnit":"m.s-1","parameterCategory":1,"la1":30.2991,"la2":30.254,"lo1":-89.0895,"lo2":-89.0444,"dy":0.0017,"dx":0.0017,"nx":28,"ny":28,"refTime":"2024-12-18T09:00:00:Z","depth":0,"parameterNumber":2,"parameterNumberName":"U-component_of_WINDS"},"data":[0,0,0,0,0,0,0,0,0,0,0,0,0,0,0,0,0,0,0,0,0,0,0,0,0,0,0,0,0,0,0,0,0,0,0,0,0,0,0,0,0,0,0,0,0,0,0,0,0,0,0,0,0,0,0,0,0,0,0.8737,0.8737,0,0.8705,0.8704,0.8704,0.868,0.868,0.868,0.868,0.8646,0.8646,0.8645,0,0,0,0,0,0,0,0,0,0,0,0,0,0.878,0.8779,0.8737,0.8737,0.8737,0.8705,0.8704,0.8704,0.868,0.868,0.868,0.868,0.8647,0.8646,0.8645,0,0,0,0,0,0,0,0,0,0,0,0,0,0.8756,0.8779,0.8738,0.8721,0.8719,0.8705,0.8704,0.8704,0.868,0.868,0.868,0.868,0.8647,0.8646,0.8645,0.8644,0,0,0.8642,0.8641,0,0,0,0,0,0,0,0,0.8757,0.8754,0.8724,0.8722,0.872,0.8696,0.8707,0.8684,0.8681,0.8695,0.868,0.8679,0.8663,0.8661,0.8655,0.8643,0.8641,0.8641,0.8641,0.864,0.864,0,0,0,0,0,0,0,0.8759,0.8756,0.8725,0.8723,0.8721,0.8716,0.8712,0.8703,0.8681,0.8694,0.8692,0.8689,0.8662,0.8656,0.8654,0.8641,0.8641,0.864,0.864,0.8639,0.8627,0.8627,0,0,0,0,0,0,0.8763,0.8757,0.8726,0.8724,0.8738,0.8715,0.8711,0.8704,0.8681,0.8677,0.8689,0.8688,0.8658,0.8656,0.8653,0.8651,0.864,0.8639,0.8639,0.8626,0.8627,0.8627,0,0,0,0,0,0,0.8764,0.8761,0.8727,0.874,0.8735,0.8715,0.8707,0.8704,0.8698,0.8677,0.8674,0.8687,0.8658,0.8655,0.8647,0.865,0.8639,0.8638,0.8626,0.8627,0.8627,0.8647,0,0,0,0,0,0,0.8766,0.8761,0.876,0.874,0.8735,0.8721,0.8708,0.8703,0.8696,0.8694,0.8675,0.8671,0.8657,0.8648,0.8646,0.8648,0.8637,0.8626,0.8626,0.8627,0.8646,0.8648,0.865,0,0,0,0,0,0.8767,0.8767,0.8761,0.8757,0.8733,0.8721,0.8718,0.8702,0.8697,0.8696,0.8683,0.8672,0.865,0.8648,0.8645,0.8647,0.8625,0.8626,0.8627,0.8645,0.8648,0.865,0,0,0,0,0,0,0.8788,0.8764,0.8756,0.875,0.8738,0.8717,0.8716,0.8706,0.8695,0.8693,0.8675,0.867,0.8665,0.8655,0.8653,0.8645,0.8636,0.8636,0.8652,0.8654,0.8656,0.8658,0.8636,0,0,0,0,0,0.8792,0.8784,0.8764,0.876,0.8754,0.8736,0.873,0.872,0.8706,0.8701,0.8687,0.8675,0.8665,0.8659,0.8649,0.8645,0.8641,0.8645,0.8647,0.8649,0.8649,0.8646,0.8648,0.8629,0.8629,0.8629,0,0,0.88,0.8786,0.8782,0.8764,0.8753,0.8746,0.8732,0.8724,0.8719,0.87,0.8691,0.8681,0.8666,0.866,0.8657,0.8652,0.8653,0.865,0.8651,0.865,0.8647,0.8649,0.8651,0.863,0.863,0.863,0,0,0.8811,0.88,0.8795,0.8785,0.8769,0.8757,0.8756,0.8737,0.873,0.8721,0.8707,0.87,0.8684,0.8674,0.8667,0.8675,0.8664,0.8672,0.8682,0.868,0.8682,0.8683,0.8686,0.8687,0.8673,0.8673,0.8673,0,0.8823,0.8811,0.8794,0.8788,0.878,0.8763,0.8759,0.875,0.8732,0.8727,0.8722,0.8702,0.869,0.8682,0.8684,0.8679,0.8678,0.8674,0.8683,0.8684,0.8685,0.8687,0.8688,0.8674,0.8674,0.8673,0.8673,0,0.8826,0.8818,0.8816,0.8799,0.8792,0.8787,0.877,0.8764,0.8755,0.8744,0.8736,0.8722,0.8709,0.8706,0.8696,0.8697,0.8694,0.8686,0.8677,0.8688,0.869,0.8691,0.8675,0.8675,0.8674,0.8674,0,0,0.8848,0.8823,0.8822,0.8815,0.8796,0.879,0.8784,0.8772,0.8767,0.8756,0.8751,0.8738,0.8731,0.8723,0.8712,0.871,0.8718,0.8702,0.8701,0.8705,0.8717,0.8723,0.8725,0.8711,0.8711,0.8711,0.8719,0,0.8856,0.8844,0.883,0.8823,0.8815,0.88,0.8795,0.8783,0.8773,0.8766,0.8754,0.8746,0.8737,0.8732,0.8729,0.8717,0.872,0.8716,0.8706,0.8706,0.8709,0.8726,0.8732,0.8739,0.8719,0.872,0.872,0,0.8862,0.8852,0.8844,0.8827,0.8823,0.8819,0.8807,0.88,0.8787,0.878,0.8771,0.876,0.8753,0.8746,0.8737,0.8735,0.873,0.8724,0.8723,0.8721,0.8713,0.8724,0.8741,0.8743,0.8721,0.8721,0.8721,0,0.8879,0.8863,0.8856,0.885,0.883,0.8828,0.8819,0.8806,0.88,0.8789,0.8785,0.8774,0.8768,0.876,0.8746,0.8742,0.8739,0.873,0.8733,0.8733,0.8732,0.8732,0.8749,0.873,0.873,0.873,0.873,0,0.8889,0.8885,0.8864,0.8859,0.8855,0.8839,0.8835,0.8825,0.8814,0.8808,0.8794,0.8789,0.8771,0.8764,0.8753,0.8748,0.8745,0.8739,0.8736,0.874,0.8741,0.8736,0.8735,0.873,0.873,0.873,0.873,0,0.8906,0.8892,0.8883,0.8865,0.8861,0.8858,0.8843,0.8839,0.8828,0.8821,0.8819,0.8802,0.8793,0.8779,0.8765,0.8758,0.8755,0.875,0.8759,0.8757,0.8761,0.876,0.8774,0.8776,0.8756,0.8757,0.8757,0,0.8913,0.8909,0.8891,0.8886,0.8878,0.887,0.8864,0.8849,0.8843,0.8828,0.8826,0.8816,0.8807,0.8794,0.8781,0.8771,0.8765,0.8771,0.8764,0.8768,0.8765,0.8765,0.8765,0.8773,0.8773,0.8773,0.8773,0,0.8926,0.8919,0.891,0.8899,0.8892,0.8883,0.8873,0.887,0.8852,0.8846,0.8837,0.883,0.8817,0.8808,0.8796,0.8788,0.8778,0.8776,0.8776,0.878,0.8785,0.8782,0.8763,0.8775,0.8775,0.8775,0.8775,0.8775,0.8938,0.8934,0.8921,0.8912,0.8903,0.8894,0.8889,0.8878,0.887,0.8858,0.885,0.8842,0.883,0.8813,0.8805,0.8799,0.8794,0.8794,0.8794,0.8795,0.8796,0.8787,0.8797,0.8797,0.8797,0.8796,0.8796,0,0.895,0.8941,0.8933,0.892,0.8913,0.8904,0.8893,0.8888,0.888,0.887,0.8862,0.8851,0.8842,0.8829,0.8819,0.8816,0.8812,0.8814,0.8814,0.8812,0.8801,0.8801,0.8818,0.8818,0.8818,0.8818,0.8818,0.8818,0.8956,0.895,0.8942,0.8931,0.8922,0.8913,0.8908,0.89,0.8891,0.888,0.8873,0.8864,0.8853,0.8842,0.8834,0.883,0.8827,0.8831,0.8826,0.8815,0.8813,0.8811,0.8812,0.8831,0.8831,0.8838,0.8838,0.8838]},{"header":{"parameterUnit":"m.s-1","parameterCategory":1,"la1":30.2991,"la2":30.254,"lo1":-89.0895,"lo2":-89.0444,"dy":0.0017,"dx":0.0017,"nx":28,"ny":28,"refTime":"2024-12-18T09:00:00:Z","depth":0,"parameterNumber":3,"parameterNumberName":"V-component_of_WINDS"},"data":[0,0,0,0,0,0,0,0,0,0,0,0,0,0,0,0,0,0,0,0,0,0,0,0,0,0,0,0,0,0,0,0,0,0,0,0,0,0,0,0,0,0,0,0,0,0,0,0,0,0,0,0,0,0,0,0,0,0,-3.7197,-3.7198,0,-3.7311,-3.7312,-3.7314,-3.7323,-3.7322,-3.732,-3.7319,-3.743,-3.7434,-3.7438,0,0,0,0,0,0,0,0,0,0,0,0,0,-3.6984,-3.6987,-3.7197,-3.7198,-3.72,-3.7311,-3.7312,-3.7314,-3.7323,-3.7322,-3.732,-3.7319,-3.7428,-3.7433,-3.7438,0,0,0,0,0,0,0,0,0,0,0,0,0,-3.7085,-3.6989,-3.7197,-3.7218,-3.7221,-3.731,-3.7312,-3.7314,-3.7323,-3.7322,-3.732,-3.7318,-3.7427,-3.7433,-3.7439,-3.7513,0,0,-3.7457,-3.746,0,0,0,0,0,0,0,0,-3.7079,-3.7092,-3.7213,-3.7217,-3.722,-3.7301,-3.7278,-3.7381,-3.7324,-3.7284,-3.7319,-3.7317,-3.7388,-3.7397,-3.7422,-3.7518,-3.7523,-3.7458,-3.7462,-3.7464,-3.7466,0,0,0,0,0,0,0,-3.7072,-3.7087,-3.7242,-3.7215,-3.7219,-3.7221,-3.7233,-3.7297,-3.7345,-3.7288,-3.7289,-3.7302,-3.7389,-3.7416,-3.7425,-3.7524,-3.7458,-3.7463,-3.7467,-3.7469,-3.7689,-3.7691,0,0,0,0,0,0,-3.7061,-3.7082,-3.7238,-3.7245,-3.7144,-3.7226,-3.724,-3.7277,-3.7344,-3.7353,-3.7304,-3.7302,-3.7407,-3.7418,-3.7429,-3.7522,-3.7464,-3.747,-3.7473,-3.7687,-3.7689,-3.7692,0,0,0,0,0,0,-3.7057,-3.7075,-3.7234,-3.7164,-3.7184,-3.7232,-3.7273,-3.728,-3.7307,-3.7356,-3.7364,-3.7323,-3.7406,-3.742,-3.7493,-3.7526,-3.7473,-3.7478,-3.7684,-3.7687,-3.769,-3.7707,0,0,0,0,0,0,-3.7051,-3.7074,-3.7103,-3.7165,-3.7188,-3.7297,-3.7275,-3.7284,-3.7318,-3.7318,-3.7376,-3.7384,-3.7406,-3.7484,-3.7499,-3.7533,-3.7483,-3.7681,-3.7686,-3.7689,-3.7703,-3.771,-3.7716,0,0,0,0,0,-3.7043,-3.7101,-3.7105,-3.7123,-3.7226,-3.7299,-3.7312,-3.7337,-3.7321,-3.7351,-3.7383,-3.7382,-3.752,-3.7491,-3.7508,-3.7545,-3.7679,-3.7684,-3.7689,-3.7701,-3.7709,-3.7716,0,0,0,0,0,0,-3.704,-3.711,-3.7114,-3.7194,-3.7241,-3.73,-3.7338,-3.7344,-3.7395,-3.7392,-3.7419,-3.7432,-3.7504,-3.7531,-3.7498,-3.7621,-3.7598,-3.7606,-3.76,-3.7609,-3.7615,-3.7606,-3.7488,0,0,0,0,0,-3.7049,-3.7104,-3.7161,-3.7226,-3.725,-3.729,-3.7323,-3.7339,-3.7387,-3.7406,-3.7443,-3.7489,-3.7543,-3.7577,-3.7629,-3.7708,-3.7721,-3.7741,-3.7747,-3.7752,-3.7759,-3.7804,-3.7814,-3.7708,-3.7708,-3.7707,0,0,-3.7067,-3.7112,-3.7145,-3.7227,-3.7265,-3.7321,-3.7307,-3.7365,-3.7407,-3.7414,-3.7486,-3.7515,-3.7568,-3.7645,-3.768,-3.7669,-3.7792,-3.7758,-3.7762,-3.7766,-3.781,-3.782,-3.7829,-3.7711,-3.771,-3.771,0,0,-3.7129,-3.7169,-3.7229,-3.7268,-3.7327,-3.7354,-3.7368,-3.7427,-3.7448,-3.7521,-3.7529,-3.7577,-3.7668,-3.7706,-3.7738,-3.7817,-3.7819,-3.7833,-3.7865,-3.7909,-3.7917,-3.7925,-3.7954,-3.7964,-3.784,-3.784,-3.784,0,-3.7144,-3.723,-3.7258,-3.7318,-3.7354,-3.7367,-3.7427,-3.7463,-3.7535,-3.7559,-3.7547,-3.7664,-3.7699,-3.7786,-3.7806,-3.783,-3.7847,-3.7826,-3.7914,-3.7922,-3.7929,-3.7957,-3.7968,-3.7841,-3.7841,-3.7841,-3.7841,0,-3.7245,-3.7305,-3.7346,-3.7418,-3.7459,-3.7518,-3.7555,-3.7592,-3.7605,-3.7633,-3.7708,-3.7752,-3.7814,-3.7836,-3.7847,-3.7924,-3.7916,-3.7909,-3.7886,-3.7941,-3.7967,-3.7978,-3.7843,-3.7843,-3.7842,-3.7842,0,0,-3.7307,-3.7397,-3.7411,-3.7445,-3.7512,-3.7558,-3.7618,-3.7681,-3.7714,-3.7763,-3.7814,-3.7893,-3.7887,-3.7923,-3.7938,-3.7977,-3.8039,-3.7965,-3.7967,-3.7978,-3.8128,-3.8133,-3.8145,-3.8041,-3.8043,-3.8044,-3.8123,0,-3.7377,-3.7487,-3.7516,-3.7609,-3.7664,-3.7678,-3.7731,-3.7777,-3.7806,-3.7856,-3.7886,-3.7942,-3.793,-3.7952,-3.799,-3.8023,-3.8069,-3.8017,-3.8088,-3.809,-3.8075,-3.8159,-3.8165,-3.8237,-3.8134,-3.8136,-3.8137,0,-3.7473,-3.7528,-3.7628,-3.769,-3.7715,-3.7762,-3.7823,-3.7871,-3.7924,-3.7942,-3.7983,-3.7996,-3.8059,-3.8033,-3.812,-3.8085,-3.8115,-3.8136,-3.8139,-3.8146,-3.8117,-3.8169,-3.826,-3.8271,-3.8154,-3.8152,-3.8151,0,-3.7509,-3.7608,-3.7681,-3.7709,-3.7783,-3.7817,-3.7849,-3.79,-3.7937,-3.799,-3.8014,-3.8073,-3.8105,-3.8149,-3.8178,-3.8156,-3.8263,-3.8239,-3.8279,-3.8278,-3.83,-3.8298,-3.8398,-3.8319,-3.8319,-3.8319,-3.8318,0,-3.7585,-3.7645,-3.7699,-3.7744,-3.7812,-3.7844,-3.791,-3.7942,-3.7989,-3.8039,-3.8054,-3.8101,-3.8135,-3.8187,-3.8209,-3.8278,-3.8292,-3.8308,-3.8313,-3.8307,-3.8305,-3.8327,-3.8323,-3.8322,-3.8321,-3.832,-3.832,0,-3.7636,-3.7674,-3.7755,-3.782,-3.7838,-3.7886,-3.794,-3.7984,-3.8014,-3.8078,-3.8094,-3.814,-3.8202,-3.8235,-3.8311,-3.8326,-3.8404,-3.8406,-3.8387,-3.8389,-3.8427,-3.8423,-3.8545,-3.8562,-3.8471,-3.8472,-3.8473,0,-3.7682,-3.773,-3.7801,-3.7837,-3.7871,-3.7928,-3.7967,-3.8001,-3.804,-3.8106,-3.8142,-3.8205,-3.8257,-3.8355,-3.8394,-3.8452,-3.8456,-3.8495,-3.8465,-3.8458,-3.8458,-3.8455,-3.846,-3.85,-3.85,-3.8501,-3.8502,0,-3.7759,-3.7777,-3.7833,-3.7898,-3.7944,-3.7996,-3.8046,-3.8075,-3.8116,-3.816,-3.8225,-3.8265,-3.8345,-3.8408,-3.847,-3.8501,-3.8509,-3.8511,-3.8524,-3.8518,-3.8505,-3.8513,-3.8402,-3.8508,-3.8507,-3.8507,-3.8507,-3.8506,-3.781,-3.7854,-3.7912,-3.7975,-3.8017,-3.8065,-3.811,-3.8147,-3.8202,-3.8272,-3.8287,-3.8356,-3.8409,-3.8494,-3.8527,-3.8581,-3.8573,-3.859,-3.8595,-3.8599,-3.8601,-3.8497,-3.8592,-3.8592,-3.8592,-3.8591,-3.8591,0,-3.7889,-3.7928,-3.7986,-3.8058,-3.8108,-3.8113,-3.817,-3.8211,-3.8272,-3.8322,-3.8374,-3.8449,-3.8511,-3.8556,-3.8618,-3.8652,-3.8657,-3.8667,-3.8665,-3.8672,-3.8604,-3.8588,-3.8662,-3.8662,-3.8662,-3.8662,-3.8662,-3.8662,-3.7936,-3.8011,-3.8036,-3.8132,-3.817,-3.8239,-3.8271,-3.8315,-3.8356,-3.844,-3.8492,-3.8522,-3.8571,-3.8637,-3.8693,-3.8705,-3.8727,-3.8738,-3.8749,-3.8684,-3.8677,-3.867,-3.8654,-3.8742,-3.8742,-3.8813,-3.8814,-3.8814]}]]